Location: Sternwarte ZA, Rosenfeld-Brittheim
(48.2889°N, 8.6789°E)
Time: 17:31:58
(UTC+02:00)

ISS - Pass Details

Date: 28 May 2020
Orbit: 417 x 420 km, 51.6° (Epoch: 26 May)

Event Time Altitude Azimuth Distance (km) Brightness Sun altitude
Rises 23:56:55 0° 289° (WNW) 2,368 0.7 -17.6°
Reaches altitude 10° 23:59:10 10° 279° (W) 1,501 -0.6 -17.8°
Enters shadow 00:01:47 29° 230° (SW) 803 -2.6 -17.9°
